Aeroporto :
LOGIN :

Iscrizione | Disclaimer

   EN    FR    IT 

 










Sommario :    VFR   VFR Marginale   IFR   IFR Intensivo   IFR Molto Intensivo
Visibilità : 
Base nubi : 
>= 8 km
>= 3000ft
5 / 8 km
1000 / 3000 ft
1500m / 5 km
500 / 1000 ft
800 / 1500m
200 / 500 ft
< 800m
< 200 ft
Simboli :   Temporali  Nebbia  Neve Forte  Precipitazioni Forti  Vento > 20 kt
SIGMETs :   Varie  Temporali  Ghiacco  Turbolenza  Onda orograficha  Ceneri Vulcaniche







- Altitudine del aeroporto : 782 ft
- Codice IATA : BGY


LIME - Orio al Serio International - Bergamo

ULTIMO METAR :
  • 201820Z 28004KT CAVOK 28/16 Q1017 NOSIG

METARs OBSOLETI :
  • 201750Z 27005KT 250V310 CAVOK 28/18 Q1017 NOSIG
  • 201720Z 28005KT 260V320 CAVOK 29/16 Q1017 NOSIG
  • 201650Z VRB04KT CAVOK 30/15 Q1017 NOSIG
  • 201620Z 23004KT 180V290 CAVOK 30/15 Q1017 NOSIG
  • 201550Z 22005KT 150V290 CAVOK 30/15 Q1017 NOSIG

TAF TAF LIME
Valido dal 20 a 18 ore il 21 a 18 ore UTC


201700Z 2018/2118 VRB05KT CAVOK
Nessun NOTAM noto per questo aeroporto.



MetMap, La meteo Aeronautica in un colpo d'occhio ! - Copyright ORBIFLY Dicembre 2007 - Disclaimer

ORBIFLY MET'MAP TEAM :

Programmazione e sviluppo : Alexandra Zaïnal
Concezione e sviluppo : Baudouin d'Aumeries
Co-Programmazione e sviluppo : Marc-Olivier Méhu
Supporto tecnico e logistico : Manuel Goepfert
Aiuto per la traduzione : Arnaldo La Scala

Contatto : metmap@orbifly.com




FONTI E CREDITI :

   NOAA